Probability
0 0 0 0 0 0 0 0 0 0 0 0 0 0 0 0 0 0 0 0 0 0 0 0 0 0 0 0 0 0 0 0 0 0 0 0 0 0
0 0 0 0 0 0 0 0 0 0 0 0 0 0 0 0 0 0 0 0 0 0 0 0 0 0 0 0 0 0 0 0 0 0 0 0 0 0
0 0 0 0 0 0 0 0 0 0 0 0 0 0 0 0 0 0 0 0 0 0 0 0 0 0 0 0 0 0 0 0 0 0 0 0 0 0
0 0 0 0 0 0 0 0 0 0 0 0 0 0 0 0 0 0 0 0 0 0 0 0 0 0 0 0 0 0 0 0 0 0 0 0 0 0
0 0 0 0 0 0 0 0 0 0 0 0 0 0 0 0 0 0 0 0 0 0 0 0 0 0 0 0 0 0 0 0 0 0 0 0 0 0
0 0 0 0 0 0 0 0 0 0 0 0 0 0 0 0 0 0 0 0 0 0 0 0 0 0 0 0 0 0 0 0 0 0 0 0 0 0
0 0 0 0 0 0 0 0 0 0 0 0 0 0 0 0 0 0 0 0 0 0 0 0 0 0 0 0 0 0 0 0 0 0 0 0 0 0
0 0 0 0 0 0 0 0 0 0 0 0 0 0 0 0 0 0 0 0 0 0 0 0 0 0 0 0 0 0 0 0 0 0 0 0 0 0
0 0 0 0 0 0 0 0 0 0 0 0 0 0 0 0 0 0 0 0 0 0 0 0 0 0 0 0 0 0 0 0 0 0 0 0 0 0
0 0 0 0 0 0 1 0 0 0 0 0 0 0 0 0 0 0 0 0 0 0 0 0 0 0 0 0 0 0 0 0 0 0 0 0 0 0
0 0 0 0 0 0 0 0 0 0 0 0 0 0 0 0 0 0 0 0 0 0 0 0 0 0 0 0 0 0 0 0 0 0 0 0 0 0
0 0 0 0 0 0 0 0 0 0 0 0 0 0 0 0 0 0 0 0 0 0 0 0 0 0 0 0 0 0 0 0 0 0 0 0 0 0
0 0 0 0 0 0 0 0 0 0 0 0 0 0 0 0 0 0 0 0 0 0 0 0 0 0 0 0 0 0 0 0 0 0 0 0 0 0
0 0 0 0 0 0 0 0 0 0 0 0 0 0 0 0 0 0 0 0 0 0 0 0 0 0 0 0 0 0 0 0 0 0 0 0 0 0
0 0 0 0 0 0 0 0 0 0 0 0 0 0 0 0 0 0 0 0 0 0 0 0 0 0 0 0 0 0 0 0 0 0 0 0 0 0
0 0 0 0 0 0 0 0 0 0 0 0 0 0 0 0 0 0 0 0 0 0 0 0 0 0 0 0 0 0 0 0 0 0 0 0 0 0
0 0 0 0 0 0 0 0 0 0 0 0 0 0 0 0 0 0 0 0 0 0 0 0 0 0 0 0 0 0 0 0 0 0 0 0 0 0
0 0 0 0 0 0 0 0 0 0 0 0 0 0 0 0 0 0 0 0 0 0 0 0 0 0 0 0 0 0 0 0 0 0 0 0 0 0
0 0 0 0 0 0 0 0 0 0 0 0 0 0 0 0 0 0 0 0 0 0 0 0 0 0 0 0 0 0 0 0 0 0 0 0 0 0
0 0 0 0 0 0 0 0 0 0 0 0 0 0 0 0 0 0 0 0 0 0 0 0 0 0 0 0 0 0 0 0 0 0 0 0 0 0
0 0 0 0 0 0 0 0 0 0 0 0 0 0 0 0 0 0 0 0 0 0 0 0 0 0 0 0 0 0 0 0 0 0 0 0 0 0
0 0 0 0 0 0 0 0 0 0 0 0 0 0 0 0 0 0 0 0 0 0 0 0 0 0 0 0 0 0 0 0 0 0 0 0 0 0
0 0 0 0 0 0 0 0 0 0 0 0 0 0 0 0 0 0 0 0 0 0 0 0 0 0 0 0 0 0 0 0 0 0 0 0 0 0
Wind_Speed
1 1 1 1 1 1 1 2 2 1 1 0 1 1 2 2 3 2 3 5 6 6 6 6 6 6 7 7 7 8 8 8 9 9 9 9 9 9
1 2 1 1 1 1 1 1 1 2 1 0 1 1 1 2 3 2 3 6 6 5 6 6 6 6 7 7 7 7 8 8 9 9 9 9 9 9
1 2 1 2 1 1 1 1 1 2 2 1 1 1 2 2 1 1 2 3 3 5 5 6 6 7 7 8 8 8 9 9 9 9 9 9 9 9
1 2 1 2 2 1 1 1 1 1 2 1 1 2 2 1 1 1 2 3 2 4 5 6 6 6 7 8 8 9 9 10 10 10 9 9 9 9
2 2 2 3 2 1 1 1 1 2 2 2 1 1 1 1 2 2 2 1 2 4 5 4 5 5 7 7 8 9 9 9 9 10 10 10 10 10
2 3 3 3 2 1 1 1 1 2 2 2 1 1 1 1 2 1 1 1 1 2 3 3 4 5 6 7 7 8 8 8 9 9 9 10 10 10
2 3 4 6 6 4 3 2 2 1 1 2 1 1 1 2 1 1 1 1 1 1 1 1 2 2 2 4 5 6 7 7 7 8 8 9 9 10
2 2 3 4 5 6 6 7 6 3 2 2 1 1 0 0 1 1 0 1 1 1 1 1 2 1 1 2 3 5 5 6 6 7 7 8 9 9
1 2 2 3 3 2 3 4 5 5 4 2 2 1 0 1 0 1 1 0 1 0 2 1 1 1 0 2 4 3 3 4 5 6 6 7 8 9
1 2 2 1 2 3 3 3 2 2 2 2 1 1 1 1 0 1 1 0 1 1 2 0 1 1 1 1 2 2 2 3 4 5 6 7 7 8
1 2 2 2 3 4 3 2 2 1 2 3 3 2 4 5 4 2 2 2 1 1 1 1 0 1 1 0 0 1 1 2 3 4 6 7 7 7
1 1 3 3 3 4 2 1 1 1 2 2 1 1 1 2 3 1 1 1 0 1 1 1 0 1 1 1 1 1 1 3 3 3 5 6 7 4
2 1 1 4 4 4 3 1 1 1 1 2 1 0 0 0 1 1 1 1 1 1 1 1 0 0 0 1 1 1 1 2 2 2 3 5 6 4
2 1 2 5 5 4 3 2 2 2 1 1 1 0 0 0 0 1 1 1 1 1 0 1 1 1 0 1 2 1 2 2 1 1 1 4 4 5
2 3 3 4 4 3 2 3 2 1 1 1 0 0 0 0 1 1 1 1 2 2 2 1 0 0 1 1 1 1 2 2 1 1 2 2 2 2
2 2 3 3 3 2 2 2 1 1 1 1 1 1 0 1 0 0 0 0 1 2 2 2 1 1 0 1 1 2 1 1 2 2 2 2 2 1
3 2 1 2 2 1 1 1 1 1 1 1 0 0 0 0 0 0 1 0 0 1 1 2 1 1 1 1 1 1 1 2 2 3 2 3 3 2
4 2 2 2 3 2 2 2 2 2 2 1 1 1 1 1 1 0 1 1 1 1 1 1 0 1 2 2 1 1 2 3 3 3 2 3 4 3
3 2 2 2 2 2 2 2 2 2 1 1 1 2 1 1 1 1 1 1 1 1 1 1 0 0 1 3 3 2 2 3 2 2 2 3 4 4
3 3 3 2 2 2 2 2 2 1 1 2 2 1 1 1 1 1 1 1 1 1 1 1 1 1 2 3 3 3 3 2 2 3 3 3 3 4
3 2 2 2 2 2 2 2 2 2 2 2 2 2 2 2 1 1 1 2 1 1 2 2 2 3 2 1 1 2 2 3 3 3 3 3 4 4
3 2 2 2 2 2 2 2 2 2 2 2 2 2 1 1 2 2 1 1 1 2 2 2 1 1 1 1 2 3 3 3 4 6 5 4 3 4
2 2 2 2 2 2 2 2 3 2 2 2 2 2 2 2 1 1 1 1 1 1 1 1 1 1 1 1 2 2 4 4 3 3 4 6 8 9
Wind_Direction
78 78 86 79 58 42 67 114 134 108 24 82 90 96 111 105 114 120 107 86 73 63 58 52 49 47 45 43 40 37 35 34 34 33 31 27 25 23
87 64 48 77 66 49 36 30 91 129 123 19 123 131 94 101 110 118 116 102 89 78 69 63 58 52 49 47 44 42 39 34 31 30 29 24 20 16
118 108 81 71 61 38 43 42 44 87 112 352 52 91 89 77 79 115 129 118 108 95 84 76 70 61 56 54 51 48 44 37 34 30 23 18 15 12
94 91 96 81 59 57 58 51 64 92 116 105 20 42 59 75 71 53 93 112 122 113 105 96 87 77 67 62 56 52 49 44 41 35 27 20 16 11
98 80 75 85 69 52 51 46 54 72 93 111 66 33 34 39 46 26 50 55 111 115 113 107 103 93 82 72 61 54 49 45 41 36 30 24 19 17
87 78 63 68 67 67 64 48 74 77 82 100 98 42 30 11 49 21 4 4 46 65 73 100 99 101 91 79 66 55 47 41 37 32 26 23 20 16
82 88 84 80 69 61 59 46 51 72 83 92 95 60 32 31 356 306 338 326 41 50 56 79 93 85 93 78 66 54 47 41 34 29 27 23 17 11
128 123 119 103 96 85 74 70 70 72 77 91 87 87 17 323 308 328 4 22 332 348 60 1 87 86 98 110 81 66 49 41 32 25 22 18 13 6
141 137 121 123 129 133 101 79 61 58 70 101 85 54 286 299 313 326 325 283 204 257 80 357 31 52 49 119 111 80 51 34 24 16 11 10 7 1
86 111 124 136 122 130 128 111 98 69 87 98 119 80 35 11 78 194 230 16 85 49 76 68 347 345 346 124 123 71 38 25 16 7 5 2 358 355
68 78 95 104 99 115 119 125 131 149 118 118 126 102 55 40 42 48 35 51 344 317 38 93 309 331 320 81 18 4 346 352 354 355 355 355 352 347
120 87 86 97 104 125 130 139 165 188 135 124 108 42 28 21 31 63 118 115 225 291 308 105 316 28 338 317 330 318 318 323 323 327 335 341 341 337
152 158 140 126 123 134 137 148 161 120 136 152 155 148 85 47 28 31 52 122 152 247 300 106 137 41 184 294 310 311 305 304 297 307 317 326 329 331
167 163 142 135 137 141 156 140 101 74 82 98 106 117 135 96 81 89 68 56 79 170 311 93 157 187 207 294 290 306 322 307 300 328 322 325 326 328
161 141 131 141 148 151 148 136 123 119 135 148 184 230 227 165 102 71 55 52 13 12 20 25 74 231 172 235 274 296 308 312 331 337 323 318 306 317
181 158 156 167 176 169 155 170 168 155 160 193 208 210 96 68 57 83 90 43 22 340 348 9 22 68 288 272 264 290 297 301 325 326 318 308 307 305
170 161 161 164 176 186 177 170 169 171 197 207 185 193 153 174 234 144 121 116 217 266 311 335 15 48 28 322 295 284 296 302 297 304 310 304 297 292
157 176 190 191 191 192 189 189 184 189 194 187 189 203 209 212 222 163 151 182 229 255 275 279 14 4 359 339 293 271 292 285 290 295 297 298 298 300
162 189 195 197 194 188 188 188 198 194 179 180 199 212 211 209 202 215 227 240 244 253 268 263 360 50 308 302 298 300 284 290 295 299 291 284 287 293
187 194 200 198 195 194 189 189 195 187 181 192 200 209 204 205 212 217 224 237 244 259 279 283 264 240 241 259 273 293 298 300 305 298 296 298 289 291
200 202 200 193 195 195 192 192 192 194 195 192 201 209 207 204 216 224 232 248 239 245 252 258 257 260 262 315 309 299 301 306 317 306 307 311 309 306
199 201 202 196 196 196 196 192 195 197 195 196 203 204 205 202 212 215 216 224 228 236 259 280 303 331 340 288 283 292 304 309 309 315 311 299 304 304
201 200 202 206 208 200 191 193 199 200 193 195 195 200 204 204 203 203 211 217 228 238 261 286 307 325 294 278 287 299 307 311 311 312 301 294 290 287